Tracking 30995 objects as of 5-Jul-2025
HD Live streaming from Space Station
objects crossing your sky now

FENGYUN 1C DEB

Track FENGYUN 1C DEB now!
10-day predictions


NORAD ID: 30857
Int'l Code: 1999-025AWT
Perigee: 718.4 km
Apogee: 784.6 km
Inclination: 99.0 °
Period: 99.7 minutes
Semi major axis: 7122 km
RCS: 0.0138 m2 (small)
Launch date: May 10, 1999
Source: People's Republic of China (PRC)
Launch site: Taiyaun Space Center, China (TSC)

Note: This is SATELLITE DEBRIS
Your satellite tracking list
CZ-6A DEB
Track 1 satellite(s)




NASA's NSSDC Master Catalog

Two Line Element Set (TLE):
1 30857U 99025AWT 25185.90129018  .00009101  00000-0  26229-2 0  9993
2 30857  98.9629 166.1142 0046475  51.5110 309.0234 14.44291372944104
Source of the keplerian elements: AFSPC